Jackpot

Texas Poker Multi Jackpot System

Kini Telah hadir Jackpot SUPER ROYAL FLUSH

Kini Telah hadir Jackpot 2000 (khusus table VIP keatas).

Ikutilah global jackpot yang tersedia di system kami, dengan system jackpot terbaru dan pertama di indonesia, anda dapat membeli jackpot dengan harga 100 rupiah saja dan menangkan hadiahnya hingga puluhan juta rupiah.

Jackpot bukanlah suatu keharusan untuk dibeli, namun kami memberikan suatu fitur tambahan untuk member tercinta dari www.sohopoker.co.

Terdapat tiga pilihan harga jackpot yang bisa anda beli yaitu :100,500,1000 dan 2000(khusus table VIP Keatas) rupiah.

Hadiah dari Multi jackpot system www.sohopoker.co

  1. full house x 10 harga jackpot yang anda beli.
      (contoh:anda membeli 1000 maka:1000 X10 = 10.000)
  2. four of kind x 250 harga jackpot yang anda beli
      (contoh:anda membeli 1000 maka:1000 X250 = 250.000)
  3. Straight flush x 1200
      (contoh:anda membeli 1000 maka:1000 X1200 = 1.200.000)
  4. Royal flush x 10000 harga jackpot yang anda beli
      (contoh:anda membeli 1000 maka:1000 X10000 = 10.000.000)
  5. SUPER ROYAL FLUSH x 30000 harga jackpot yang anda beli
      (contoh:anda membeli 1000 maka:1000 X30000 = 30.000.000)

Kondisi kartu

  1. full house adalah kondisi kartu dimana kartu anda dan kartu tengah dengan total 7 kartu bisa mendapatkan nilai 5 kartu dengan kombinasi 1 tris(three of kind) dan 1 pair, contoh 3 kartu 10 dan 2 kartu 5
  2. Four of kind adalah kondisi kartu dimana kartu anda dan kartu tengah dengan total 7 kartu bisa mendapatkan nilai 5 kartu dengan kombinasi 4 kartu yang sama jumlah dan 1 kartu apapun juga contoh anda mendapatkan 4 buah kartu angka 3 dan 1 kartu apapun.
  3. Staright flush adalah kondisi kartu dimana kartu anda dan kartu tengah dengan total 7 kartu bisa mendapatkan nilai 5 kartu dengan kombinasi seri / staright dengan kembang yang sama contoh : urutan kartu dari angka 5, 6, 7, 8 , 9 10 dengan kembang yg sama misalnya as hati
  4. Royal flush adalah kondisi kartu dimana kartu anda dan kartu tengah dengan total 7 kartu bisa mendapatkan nilai 5 kartu dengan kombinasi seri / staright dengan kembang yang sama tetapi kartu tersebut haruslah dimulai dari 10. contoh 10, Queen, Jack, King dan aces dengan kembang yang sama
  5. Super Royal flush adalah kondisi kartu dimana Kedua kartu anda digabung dengan 3 kartu pertama meja haruslah royal flush. contoh kartu anda 10,Queen kembang sama dan 3 kartu pertama meja adalah Jack, King dan aces dengan kembang yang sama

Demikian adalah penjelasan dari Multi Jackpot www.sohopoker.co terima kasih dan selamat bermain salam hoki dari kami

Texas Poker Jackpot Winner

TOP SUPER ROYAL FLUSH
No.TanggalNamaPriceWin
123/06 14:50DONTKERSuper Royal flush60,000,000
223/06 14:11Z4CKLYSuper Royal flush3,000,000
323/06 14:09ACUANG08Super Royal flush6,000,000
423/06 14:09AHMAD059Super Royal flush6,000,000
523/06 10:46M1L3Y888Super Royal flush6,000,000
TOP ROYAL FLUSH
No.TanggalNamaPriceWin
123/06 23:01STEINLY_18Royal flush5,000,000
223/06 22:52UNC4NGGRoyal flush2,000,000
323/06 22:51VYUMVJK1KTRoyal flush10,000,000
423/06 22:34HILMI01Royal flush20,000,000
523/06 22:26N4SRK9JJRSRoyal flush1,000,000
TOP STRAIGHT FLUSH
No.TanggalNamaPriceWin
123/06 23:04BEWEDStraight Flush1,200,000
223/06 23:03SBOPALTIStraight Flush240,000
323/06 23:03JONDET49Straight Flush600,000
423/06 23:01S4M83Straight Flush600,000
523/06 23:01AMRY_AZStraight Flush600,000
LATEST JACKPOT
No.TanggalNamaPriceWin
123/06 23:05WINWIN305Full House5,000
223/06 23:05SI5JOYJI6FFull House10,000
323/06 23:05SQ6CAW3XEQFull House10,000
423/06 23:05L4V3ND1RFull House1,000
523/06 23:05SAC98Full House2,000
623/06 23:05RCG22Full House10,000
723/06 23:05KIPASRAJAAFull House5,000
823/06 23:05JEMBRETT01Full House2,000
923/06 23:05SYAH06Full House5,000
1023/06 23:05SZTIP2WJ2MFull House5,000
1123/06 23:05MARQUESHFull House500
1223/06 23:05HELLENSFull House20,000
1323/06 23:05TANKI01Full House20,000
1423/06 23:05TAUFAN813Full House2,000
1523/06 23:05DEY97Full House2,000
1623/06 23:05ADITLK3Full House2,000
1723/06 23:05IAWWARK5I0Full House2,000
1823/06 23:05TANOE11Full House10,000
1923/06 23:05XDVTN89TPEFull House10,000
2023/06 23:05GEOGRAFICFour Of A Kind125,000
2123/06 23:05SEELATEFull House1,000
2223/06 23:05JIS13Full House5,000
2323/06 23:05KOMODOACXFull House5,000
2423/06 23:05MONACO88Full House2,000
2523/06 23:05S14WS14WFull House2,000
2623/06 23:05KOREK333Full House10,000
2723/06 23:05BD070287Full House5,000
2823/06 23:05STRIKE789Full House2,000
2923/06 23:05OASIS45Full House10,000
3023/06 23:05NEXTOLFull House1,000
3123/06 23:05OPAL01Full House10,000
3223/06 23:05J4B4IM5877Full House2,000
3323/06 23:04D2649D7EFull House2,000
3423/06 23:04KARTUJACK9Full House5,000
3523/06 23:04YESUSS86Full House2,000
3623/06 23:04D9X9X9X9XLFull House500
3723/06 23:04L0ND0N__Full House2,000
3823/06 23:04WIDUHFull House5,000
3923/06 23:04GORENG9999Full House10,000
4023/06 23:04PUKIMA321Full House5,000
4123/06 23:04JEJE001Full House2,000
4223/06 23:04TEMPO_78Four Of A Kind250,000
4323/06 23:04BOXDEWA88Full House2,000
4423/06 23:04M0M0KB4R3HFull House5,000
4523/06 23:04AYAMTOKFull House5,000
4623/06 23:04GACUUUUN45Full House5,000
4723/06 23:04SITU_MORANFull House1,000
4823/06 23:04M17158RE1OX4ZVFFull House5,000
4923/06 23:04D6309360Four Of A Kind50,000
5023/06 23:04ALPACINO88Full House2,000

Domino Multi Jackpot System

Ikutilah global jackpot yang tersedia di system kami, dengan system jackpot terbaru dan pertama di indonesia, anda dapat membeli jackpot dengan harga 100 rupiah saja dan menangkan hadiahnya hingga puluhan juta rupiah.

Jackpot bukanlah suatu keharusan untuk dibeli, namun kami memberikan suatu fitur tambahan untuk member tercinta dari www.sohopoker.co.

Terdapat tiga pilihan harga jackpot yang bisa anda beli yaitu :100,500 dan 1000 rupiah.

Hadiah dari Multi jackpot system www.sohopoker.co

  1. Murni Kecil x 50 harga jackpot yang anda beli.
      (contoh:anda membeli 1000 maka:1000 X 50 = 50.000)
  2. Murni Besar x 50 harga jackpot yang anda beli
      (contoh:anda membeli 1000 maka:1000 X 50 = 50.000)
  3. BALAK x 100 harga jackpot yang anda beli
      (contoh:anda membeli 1000 maka:1000 X 100 = 100.000)
  4. ENAM DEWA x 6666 harga jackpot yang anda beli
      (contoh:anda membeli 1000 maka:1000 X 6666 = 6.666.000)

Demikian adalah penjelasan dari Multi Jackpot www.sohopoker.co terima kasih dan selamat bermain salam hoki dari kami

Domino Jackpot Winner

TOP ENAM DEWA
No.TanggalNamaPriceWin
123/06 22:22PAPAP83murni enam3,333,000
223/06 19:21BRAM053murni enam6,666,000
323/06 17:46LANTAI5murni enam3,333,000
423/06 17:30OSCAR0905murni enam6,666,000
523/06 11:42LANI234murni enam3,333,000
TOP BALAK
No.TanggalNamaPriceWin
123/06 23:04DAMULYbalak100,000
223/06 23:04ALPEN99balak100,000
323/06 23:02BB3W7MJAV5balak100,000
423/06 23:02GLG777balak100,000
523/06 23:01ENZIWINbalak10,000
LATEST JACKPOT
No.TanggalNamaPriceWin
123/06 23:04NIMEN456murni besar25,000
223/06 23:04DAMULYbalak100,000
323/06 23:04ALPEN99balak100,000
423/06 23:04ZOM0QFH88Rlucky9910,000
523/06 23:04PITBULL86murni kecil50,000
623/06 23:03ED9F869Clucky9910,000
723/06 23:03TRUKAN89murni kecil50,000
823/06 23:03RUWET008murni besar50,000
923/06 23:03RAGAKU99murni kecil25,000
1023/06 23:02PD4DGUNTUR13murni kecil50,000
1123/06 23:02BB3W7MJAV5balak100,000
1223/06 23:02CEPEKJIGOlucky992,500
1323/06 23:02GLG777balak100,000
1423/06 23:01ININ1313murni besar25,000
1523/06 23:01J4BILmurni besar25,000
1623/06 23:01BXU4HETHYImurni kecil5,000
1723/06 23:01UTEP95murni besar5,000
1823/06 23:01MUF26murni kecil50,000
1923/06 23:01ENZIWINbalak10,000
2023/06 23:00DAPON9balak100,000
2123/06 23:00W1D199murni kecil50,000
2223/06 23:00BAKAR056murni besar25,000
2323/06 23:00LARA01020balak10,000
2423/06 23:00HANESmurni besar25,000
2523/06 22:59KRIWOELmurni kecil25,000
2623/06 22:59BXU4HETHYImurni besar5,000
2723/06 22:59W1D199lucky9950,000
2823/06 22:58KYONLEONmurni besar25,000
2923/06 22:58WAHUD30murni kecil25,000
3023/06 22:58ESHCOBARmurni besar50,000
3123/06 22:58HAJIWAN1murni besar50,000
3223/06 22:57RYANDI_murni besar5,000
3323/06 22:57B37RDO88682murni kecil25,000
3423/06 22:57SERSImurni besar50,000
3523/06 22:57SELENA97murni kecil50,000
3623/06 22:57KAROLDSbalak50,000
3723/06 22:57FLASH09murni besar50,000
3823/06 22:56HENAU01balak50,000
3923/06 22:56HUDDINmurni kecil50,000
4023/06 22:56W1N_JACKmurni kecil50,000
4123/06 22:56MANY11murni kecil25,000
4223/06 22:56BALON898balak10,000
4323/06 22:55DARAH86murni kecil5,000
4423/06 22:55GADYSmurni kecil25,000
4523/06 22:55BETA170717murni kecil5,000
4623/06 22:54KAROLDSmurni besar25,000
4723/06 22:53JAGOO85balak100,000
4823/06 22:53LUCKYME88murni kecil25,000
4923/06 22:53SAKTINEANmurni besar5,000
5023/06 22:53TARAUPbalak100,000

Ceme Multi Jackpot System

Jackpot dilihat dari gabungan kartu pemain dengan kartu bandar. Bandar harus membeli jackpot sebanyak jumlah player yang sedang duduk. Sebagai contoh bila terdapat 3 pemain duduk bermain, dan bandar memutuskan untuk membeli jackpot Rp 1.000, maka pada periode tersebut bandar akan membeli jackpot sebanyak 3xRp1.000 = Rp3.000.

Jackpot bukanlah suatu keharusan untuk dibeli, namun kami memberikan suatu fitur tambahan untuk member tercinta dari www.sohopoker.co.

Terdapat tiga pilihan harga jackpot yang bisa anda beli yaitu :100,500 dan 1000 rupiah.

Hadiah dari Multi jackpot system www.sohopoker.co

  1. Murni Kecil x 50 harga jackpot yang anda beli.
      (contoh:anda membeli 1000 maka:1000 X 50 = 50.000)
  2. Murni Besar x 50 harga jackpot yang anda beli
      (contoh:anda membeli 1000 maka:1000 X 50 = 50.000)
  3. BALAK x 200 harga jackpot yang anda beli
      (contoh:anda membeli 1000 maka:1000 X 200 = 200.000)
  4. ENAM DEWA x 6666 harga jackpot yang anda beli
      (contoh:anda membeli 1000 maka:1000 X 6666 = 6.666.000)

Demikian adalah penjelasan dari Multi Jackpot www.sohopoker.co terima kasih dan selamat bermain salam hoki dari kami

Ceme Jackpot Winner

TOP ENAM DEWA
No.TanggalNamaPriceWin
123/06 22:42GOPAL1506murni enam666,600
223/06 22:42SELISTIANAmurni enam3,333,000
323/06 22:39CHIPEKOmurni enam6,666,000
423/06 21:57RAFARAFIFmurni enam6,666,000
523/06 21:57FRD0511murni enam3,333,000
TOP BALAK
No.TanggalNamaPriceWin
123/06 23:05KRANJ4NG69balak20,000
223/06 23:05SAINT85balak200,000
323/06 23:05DUEK0102balak20,000
423/06 23:05ISKAK_78balak200,000
523/06 23:04DEPOSIT339balak200,000
LATEST JACKPOT
No.TanggalNamaPriceWin
123/06 23:05KRANJ4NG69balak20,000
223/06 23:05SAINT85balak200,000
323/06 23:05SHOFA081murni kecil50,000
423/06 23:05JINPOKER8murni besar50,000
523/06 23:05HOKKI10murni besar25,000
623/06 23:05TOG19murni kecil50,000
723/06 23:05PAREAN85murni kecil50,000
823/06 23:05DUEK0102balak20,000
923/06 23:05ISKAK_78balak200,000
1023/06 23:05DLOVA14murni kecil50,000
1123/06 23:05MARIWANAmurni kecil50,000
1223/06 23:04DPTTNARUHKUCINGmurni kecil50,000
1323/06 23:04AJIJI08murni kecil5,000
1423/06 23:04ARIE6421murni besar50,000
1523/06 23:04DIANOZUSmurni besar25,000
1623/06 23:04ALAPOLA121murni kecil25,000
1723/06 23:04DONPI123murni kecil5,000
1823/06 23:04JHONKDJHONmurni kecil25,000
1923/06 23:04RIYANTO21murni besar50,000
2023/06 23:04JUDI0524murni besar50,000
2123/06 23:04AMRICA88murni kecil50,000
2223/06 23:04GIULLYmurni kecil50,000
2323/06 23:04CHYKO2525murni besar50,000
2423/06 23:04DALLY1988murni besar50,000
2523/06 23:04UL4Y168murni kecil50,000
2623/06 23:04X9OO1ADHEDmurni kecil50,000
2723/06 23:04ADJI26murni kecil25,000
2823/06 23:04DEPOSIT339balak200,000
2923/06 23:04NZG9A56YZRmurni kecil50,000
3023/06 23:04ZHIKOPUTRAbalak20,000
3123/06 23:04PEYOLONDObalak200,000
3223/06 23:04OSKARmurni besar25,000
3323/06 23:04YASIR36murni besar50,000
3423/06 23:03KOKOPROmurni kecil5,000
3523/06 23:03BBL789murni kecil50,000
3623/06 23:03JOJO2121balak200,000
3723/06 23:03DYECHAN64balak20,000
3823/06 23:03GOPAL1506murni kecil50,000
3923/06 23:03N0V3S111balak100,000
4023/06 23:03DCHAMAXbalak200,000
4123/06 23:03MIEAYAM09murni besar25,000
4223/06 23:03DOMAIN2murni besar25,000
4323/06 23:03ADHIELLAmurni besar50,000
4423/06 23:03AD2578murni kecil50,000
4523/06 23:03NEKNOK00balak20,000
4623/06 23:03KULSUM12balak100,000
4723/06 23:03A2E44C62murni besar50,000
4823/06 23:03UJU1569murni besar25,000
4923/06 23:03NUNKYS2murni besar50,000
5023/06 23:03BERDHANJSmurni besar50,000